GW6408 Weather Reports


time (UTC)temp
F
wind
direction
speed
knots
gust
knots
rain 1hr
in
rain 24hr
in
rain mn
in
humidity
%
barometer
mb
20260507180025 53 96 5.2 13.0 0.09 1.33 1.33 91 1010.7
20260507174514 53 92 3.5 8.7 0.10 1.32 1.32 92 1011.2
20260507173019 53 101 2.6 7.8 0.11 1.30 1.30 92 1011.8
20260507171520 53 36 2.6 8.7 0.09 1.26 1.26 90 1012.5
20260507170030 53 80 1.7 8.7 0.14 1.24 1.24 91 1012.5
20260507164506 53 82 7.0 13.0 0.17 1.22 1.22 91 1011.9
20260507163015 54 90 3.5 9.6 0.19 1.19 1.19 92 1011.8
20260507161530 54 102 5.2 11.3 0.24 1.16 1.16 92 1011.8
20260507160031 54 71 6.1 9.6 0.23 1.10 1.10 92 1012.0
20260507154526 54 91 3.5 14.8 0.21 1.04 1.04 92 1011.8
20260507153017 54 76 5.2 14.8 0.17 1.00 1.00 92 1012.0
20260507151513 55 47 4.3 13.0 0.12 0.93 0.93 91 1012.3
20260507150020 55 32 7.0 13.0 0.07 0.87 0.87 91 1012.4
20260507144535 56 69 4.3 9.6 0.04 0.84 0.84 89 1012.0
20260507143025 57 78 4.3 11.3 0.03 0.83 0.83 90 1012.0
20260507141512 58 46 6.1 13.0 0.01 0.81 0.81 91 1011.7
20260507140016 59 107 3.5 8.7 0.01 0.80 0.80 92 1011.5
20260507134522 59 84 3.5 8.7 0.03 0.80 0.80 92 1011.4
20260507133026 59 36 4.3 10.4 0.03 0.80 0.80 92 1011.3
20260507131531 59 57 3.5 10.4 0.04 0.80 0.80 92 1011.1
20260507130027 59 58 5.2 11.3 0.06 0.79 0.79 92 1011.6
20260507124520 59 23 3.5 13.9 0.07 0.77 0.77 92 1011.8
20260507123032 59 46 6.1 13.0 0.13 0.77 0.77 92 1011.7
20260507121526 59 50 6.1 13.0 0.18 0.76 0.76 92 1011.6
20260507120026 60 38 7.0 12.2 0.20 0.73 0.73 91 1011.7
20260507114517 61 352 7.0 13.0 0.20 0.70 0.70 90 1011.7
20260507113028 65 270 0.0 1.7 0.24 0.64 0.64 93 1010.9
20260507111523 66 310 0.0 2.6 0.37 0.58 0.58 92 1011.1
20260507110032 66 247 0.0 2.6 0.48 0.52 0.52 92 1010.7
20260507104516 66 338 0.9 2.6 0.48 0.50 0.50 92 1010.8
20260507103033 66 300 0.9 3.5 0.38 0.40 0.40 91 1010.6
20260507101508 66 305 1.7 7.0 0.19 0.21 0.21 90 1010.5
20260507100013 67 292 1.7 4.3 0.04 0.05 0.05 88 1010.1
20260507094518 67 243 0.9 2.6 0.02 0.02 0.02 87 1009.7
20260507093016 67 290 1.7 5.2 0.02 0.02 0.02 87 1009.6
20260507091504 67 212 0.9 6.1 0.02 0.02 0.02 86 1009.7
20260507090009 68 269 0.9 6.1 0.01 0.01 0.01 83 1010.0
20260507084514 68 207 1.7 11.3 0.00 0.00 0.00 82 1010.1
20260507083028 69 240 2.6 7.0 0.00 0.00 0.00 81 1010.2
20260507081530 69 245 0.9 6.1 0.00 0.00 0.00 80 1010.4
20260507080011 69 227 0.9 6.1 0.00 0.00 0.00 80 1010.6
20260507074510 69 257 2.6 6.1 0.00 0.00 0.00 80 1010.8
20260507073016 69 307 2.6 6.1 0.00 0.00 0.00 81 1010.6
20260507071519 68 250 2.6 7.0 0.00 0.00 0.00 81 1010.6
20260507070024 68 238 0.9 6.1 0.00 0.00 0.00 81 1010.5
20260507064509 68 234 1.7 6.1 0.00 0.00 0.00 81 1010.2
20260507063010 69 213 1.7 5.2 0.00 0.00 0.00 79 1009.8
20260507061533 69 221 2.6 7.8 0.00 0.00 0.00 79 1010.7
20260507060023 69 261 1.7 6.1 0.00 0.00 0.00 78 1011.4
20260507054508 70 254 2.6 7.8 0.00 0.00 0.00 75 1011.5
20260507053016 71 270 1.7 7.8 0.00 0.00 0.00 74 1011.6
20260507051518 71 280 1.7 6.1 0.00 0.00 0.00 73 1011.7
20260507050025 71 244 1.7 7.0 0.00 0.00 0.00 71 1011.5
20260507044524 71 234 0.9 3.5 0.00 0.00 0.00 71 1011.3
20260507043010 71 221 1.7 6.1 0.00 0.00 0.00 71 1011.5
20260507041531 71 270 1.7 4.3 0.00 0.00 0.00 71 1011.5
20260507040020 72 245 0.0 4.3 0.00 0.00 0.00 70 1011.4
20260507034525 72 248 0.9 4.3 0.00 0.00 0.00 70 1011.1
20260507033031 72 273 1.7 5.2 0.00 0.00 0.00 70 1011.1
20260507031513 72 207 0.9 2.6 0.00 0.00 0.00 69 1010.9
20260507030016 72 260 1.7 4.3 0.00 0.00 0.00 68 1011.3
20260507024524 72 192 0.9 4.3 0.00 0.00 0.00 68 1011.5
20260507023031 72 190 1.7 3.5 0.00 0.00 0.00 67 1011.8
20260507021527 72 240 1.7 3.5 0.00 0.00 0.00 67 1011.7
20260507020014 72 192 1.7 2.6 0.00 0.00 0.00 67 1011.8
20260507014525 73 215 0.0 1.7 0.00 0.00 0.00 66 1011.9
20260507013038 73 215 0.0 5.2 0.00 0.00 0.00 65 1011.5
20260507011506 74 256 0.9 2.6 0.00 0.00 0.00 64 1011.6
20260507010022 74 211 0.9 5.2 0.00 0.00 0.00 63 1011.7
20260507004518 75 277 0.9 3.5 0.00 0.00 0.00 62 1011.7
20260507003020 75 257 1.7 4.3 0.00 0.00 0.00 61 1011.4
20260507001514 76 262 0.9 4.3 0.00 0.00 0.00 60 1011.3
20260507000022 76 249 0.9 7.0 0.00 0.00 0.00 59 1011.0
20260506234517 77 209 2.6 6.1 0.00 0.00 0.00 58 1011.1
20260506233025 77 232 1.7 8.7 0.00 0.00 0.00 58 1010.8
20260506231523 77 267 1.7 6.1 0.00 0.00 0.00 57 1010.7
20260506230006 78 150 2.6 6.1 0.00 0.00 0.00 57 1010.6
20260506224529 78 293 0.9 6.1 0.00 0.00 0.00 57 1010.7
20260506223025 78 259 1.7 7.0 0.00 0.00 0.00 57 1010.7
20260506221525 78 219 2.6 7.8 0.00 0.00 0.00 57 1010.7
20260506220028 78 241 3.5 8.7 0.00 0.00 0.00 57 1010.6
20260506214515 79 224 2.6 10.4 0.00 0.00 0.00 57 1010.6
20260506213016 79 246 2.6 12.2 0.00 0.00 0.00 56 1010.4
20260506211526 79 184 5.2 13.9 0.00 0.00 0.00 55 1010.0
20260506210026 79 205 4.3 13.0 0.00 0.00 0.00 55 1010.4
20260506204526 78 209 5.2 13.9 0.00 0.00 0.00 56 1010.7
20260506203019 78 247 3.5 10.4 0.00 0.00 0.00 56 1011.0
20260506201522 79 238 8.7 13.9 0.00 0.00 0.00 54 1011.3
20260506200028 79 189 7.0 13.9 0.00 0.00 0.00 58 1011.6
20260506194527 78 169 3.5 14.8 0.00 0.00 0.00 59 1011.9
20260506193014 78 258 5.2 12.2 0.00 0.00 0.00 59 1012.1
20260506191519 78 223 3.5 11.3 0.00 0.00 0.00 60 1012.1
20260506190024 77 236 2.6 13.9 0.00 0.00 0.00 61 1012.3
20260506184528 77 222 7.0 19.1 0.00 0.00 0.00 60 1012.5
20260506183028 77 252 3.5 12.2 0.00 0.00 0.00 60 1012.5
20260506181519 76 248 5.2 13.0 0.00 0.00 0.00 60 1012.8